SL-14 R/B, 20741

Orbit data source: Space-Track

SL-14 R/B, 20741 is space debris in LEO originally from a launch on Wed, 08 Aug 1990 UTC launched from the Plesetsk Missile And Space Complex (PKMTR). Debris objects in space refer to the collection of defunct objects orbiting the Earth. Examples of debris include non-operational satellites, rocket bodies, and fragments generated from explosions, collisions, or faulty payload assembly.

Loading next visibility...
Identifier
20741, 1990-070G
Orbit
LEO
Country
Flag of CISCIS
Related business
Manufacturer
Yuzhnoe
Mission
Spacecraft
Bus & Motor
S5M, Unknown motor
Mass
1,600 kg wet, 1,600 kg dry
Launch date (UTC)
1990-08-08 (35 years ago)
Launch vehicle
Unknown
Launch site
Plesetsk Missile And Space Complex (PKMTR)
Object type
Payload
Rocket body
Debris
Shape & HBR
Cyl, 1.4 m
Radar Cross Section
7.351 m², Large (>1 m²)

Expand to show TLE details & history
Last TLE update: 21 hours ago

TLE from 21 hours ago
0 SL-14 R/B
1 20741U 90070G   25306.23707756  .00000008  00000-0 -12120-4 0  9992
2 20741  82.5795 213.3136 0035189 203.9302 269.9386 12.55715691615047
Epoch: 2025-11-02T05:41Z
TLE epoch observation values (Epoch: 2025-11-02T05:41:23.501Z)
Latitude
65.53211°
Longitude
-110.33723°
Altitude
1,452.092 km
Speed
7.142 km/s
True Right ascension
01h 07m 03s
True Declination
65° 24' 49"
Sunlit
Object was in full shadow at epoch
Visualization orbit readout
Latitude
Unknown
Longitude
Unknown
Altitude
Unknown
Speed
Unknown
Apparent Right ascension
Unknown
Apparent Declination
Unknown
Sunlit
N/A
Visualization observer readout
Local Sidereal Time
22:55:48
Azimuth
Unknown
Elevation
Unknown
Doppler factor
Unknown
Orbital elements
Apogee altitude
1,465.513 km
Perigee altitude
1,410.504 km
Semi-major axis
7,816.145 km
Eccentricity
0.00352
Inclination
82.5795°
RAAN
213.3136°
Arg. of periapsis
203.9302°
True anomaly
269.53537°
Mean anomaly
269.9386°
Eccentric anomaly
269.73698°
Mean motion
3.1409 °/min
Orbital period
114.62 mins
BSTAR
-0.00001212
Loading maneuver chart data...
Computing Atmospheric mass density...
Loading historical data...
Loading historical data...
Loading historical data...
Loading historical data...
Loading historical data...
Loading historical data...
Loading historical data...

Documentation

Showing up to 5 results
|